User: anonymous   Login
Location: Owatonna
(44.0840°N, 93.2260°W)
Time: 06:08:34
(UTC-05:00)
Language:

Tiangong 1 - Orbit

View from above orbital plane
View from above orbital plane
View from above satellite
View from above satellite

Ground track
Ground track

The orbit data is extracted from the following two-line orbital elements,

1 37820U 11053A   17145.54082069 +.00026031 +00000-0 +15036-3 0  9992
2 37820 042.7611 338.5772 0019804 278.8754 127.9582 15.77806370324390
Epoch (UTC): 25 May 2017 12:58:46
Eccentricity: 0.0019804
inclination: 42.7611°
perigee height: 323 km
apogee height: 350 km
right ascension of ascending node: 338.5772°
argument of perigee: 278.8754°
revolutions per day: 15.77806370
mean anomaly at epoch: 127.9582°
orbit number at epoch: 32439

The dashed part of the orbit path shows where the satellite is in the earth's shadow,  

DLR